KCIKMI Weather Reports


time (UTC)temp
C
wind
direction
speed
KPH
gust
KPH
rain 1hr
cm
rain 24hr
cm
rain mn
cm
humidity
%
barometer
mb
20260901173545 17 197 0.0 0.0 0.00 1.96 1.96 93 1015.6
20260901173052 17 195 0.0 0.0 0.00 1.96 1.96 93 1015.5
20260901172543 17 195 0.0 0.0 0.00 1.96 1.96 93 1015.5
20260901172043 17 187 0.0 0.0 0.00 1.96 1.96 93 1015.4
20260901171551 17 273 0.0 0.0 0.00 1.96 1.96 94 1015.3
20260901171042 17 190 0.0 0.0 0.00 1.96 1.96 93 1015.1
20260901170542 17 353 0.0 0.0 0.00 1.96 1.96 94 1015.1
20260901170052 17 15 0.0 0.0 0.00 1.96 1.96 94 1015.2
20260901165541 17 333 0.0 0.0 0.03 1.96 1.96 95 1015.4
20260901165041 17 332 0.0 0.0 0.03 1.96 1.96 94 1015.4
20260901164545 17 333 0.0 0.0 0.03 1.96 1.96 94 1015.4
20260901164041 17 333 0.0 0.0 0.05 1.96 1.96 94 1015.5
20260901163541 17 244 0.0 0.0 0.08 1.96 1.96 94 1015.5
20260901163103 17 322 0.0 0.0 0.18 1.96 1.96 94 1015.5
20260901162540 17 321 0.0 0.0 0.30 1.96 1.96 94 1015.5
20260901162041 17 204 0.0 1.6 0.41 1.96 1.96 95 1015.5
20260901161549 17 206 0.0 1.6 0.46 1.96 1.96 94 1015.5
20260901161040 17 267 0.0 3.2 0.46 1.96 1.96 94 1015.6
20260901160539 17 218 0.0 3.2 0.48 1.96 1.96 94 1015.5
20260901160041 17 240 0.0 4.8 0.51 1.96 1.96 94 1015.6
20260901155539 17 201 0.0 4.8 0.51 1.93 1.93 93 1015.7
20260901155039 17 265 0.0 0.0 0.53 1.93 1.93 94 1015.8
20260901154538 17 225 0.0 1.6 0.56 1.93 1.93 93 1015.8
20260901154041 17 351 0.0 4.8 0.56 1.91 1.91 93 1015.8
20260901153537 17 199 0.0 4.8 0.58 1.88 1.88 93 1015.8
20260901153036 18 294 0.0 3.2 0.51 1.78 1.78 93 1015.7
20260901152538 18 318 0.0 3.2 0.48 1.65 1.65 94 1015.9
20260901152033 18 299 0.0 1.6 0.43 1.52 1.52 94 1015.9
20260901151537 18 10 0.0 0.0 0.46 1.50 1.50 94 1015.8
20260901151032 18 247 0.0 0.0 0.58 1.50 1.50 94 1015.9
20260901150532 18 311 0.0 0.0 0.69 1.45 1.45 94 1015.8
20260901150033 18 288 0.0 0.0 0.71 1.42 1.42 94 1015.6
20260901145533 18 314 0.0 0.0 0.99 1.42 1.42 94 1015.7
20260901145030 18 316 0.0 0.0 0.99 1.40 1.40 94 1015.8
20260901144533 18 333 0.0 0.0 1.02 1.37 1.37 94 1015.7
20260901144032 18 336 0.0 0.0 1.02 1.35 1.35 94 1015.6
20260901143529 18 301 0.0 0.0 0.97 1.30 1.30 94 1015.6
20260901143029 19 324 0.0 0.0 0.94 1.24 1.24 93 1015.8
20260901142528 19 324 0.0 1.6 0.84 1.14 1.14 93 1016.0
20260901142028 19 334 0.0 3.2 0.81 1.09 1.09 93 1015.9
20260901141533 20 221 0.0 3.2 0.71 1.02 1.02 94 1015.8
20260901141024 20 220 0.0 1.6 0.64 0.89 0.89 93 1015.9
20260901140524 20 220 0.0 1.6 0.56 0.79 0.79 92 1016.3
20260901140024 20 308 0.0 0.0 0.46 0.66 0.66 94 1016.2
20260901135525 20 308 0.0 0.0 0.20 0.41 0.41 94 1016.0
20260901135022 20 308 0.0 0.0 0.25 0.38 0.38 94 1015.9
20260901134523 20 308 0.0 1.6 0.28 0.36 0.36 94 1015.6
20260901134022 20 308 0.0 1.6 0.25 0.33 0.33 94 1015.5
20260901133524 20 303 0.0 0.0 0.30 0.33 0.33 94 1015.4
20260901133022 20 303 0.0 0.0 0.30 0.30 0.30 94 1015.4
20260901132522 20 303 0.0 0.0 0.30 0.30 0.30 94 1015.4
20260901132022 20 302 0.0 0.0 0.28 0.28 0.28 94 1015.4
20260901131523 20 303 0.0 0.0 0.25 0.25 0.25 94 1015.5
20260901131022 20 303 0.0 0.0 0.25 0.25 0.25 93 1015.4
20260901130523 20 289 0.0 0.0 0.23 0.23 0.23 93 1015.4
20260901130021 21 289 0.0 0.0 0.20 0.20 0.20 92 1015.4
20260901125520 21 289 0.0 0.0 0.18 0.18 0.18 92 1015.5
20260901125020 21 289 0.0 0.0 0.13 0.13 0.13 92 1015.4
20260901124520 21 289 0.0 0.0 0.08 0.08 0.08 91 1015.5
20260901124019 21 289 0.0 0.0 0.05 0.05 0.05 91 1015.5
20260901123519 21 289 0.0 0.0 0.03 0.03 0.03 90 1015.5
20260901123030 21 289 0.0 0.0 0.00 0.00 0.00 90 1015.5
20260901122519 21 289 0.0 0.0 0.00 0.00 0.00 89 1015.5
20260901122017 21 289 0.0 0.0 0.00 0.00 0.00 90 1015.5
20260901121519 21 289 0.0 0.0 0.00 0.00 0.00 89 1015.4
20260901121018 21 289 0.0 0.0 0.00 0.00 0.00 89 1015.4
20260901120518 21 197 0.0 0.0 0.00 0.00 0.00 89 1015.4
20260901120117 21 197 0.0 0.0 0.00 0.00 0.00 89 1015.5
20260901115517 21 197 0.0 0.0 0.00 0.00 0.00 89 1015.4
20260901115017 21 197 0.0 0.0 0.00 0.00 0.00 90 1015.4
20260901114515 21 197 0.0 0.0 0.00 0.00 0.00 90 1015.5
20260901114016 21 197 0.0 0.0 0.00 0.00 0.00 90 1015.5
20260901113516 21 197 0.0 0.0 0.00 0.00 0.00 91 1015.5
20260901113016 21 197 0.0 0.0 0.00 0.00 0.00 91 1015.5
20260901112514 21 197 0.0 0.0 0.00 0.00 0.00 91 1015.5
20260901112014 21 197 0.0 0.0 0.00 0.00 0.00 91 1015.4
20260901111513 20 197 0.0 0.0 0.00 0.00 0.00 91 1015.4
20260901111015 20 197 0.0 0.0 0.00 0.00 0.00 91 1015.4
20260901110512 20 197 0.0 0.0 0.00 0.00 0.00 91 1015.3
20260901110012 20 197 0.0 0.0 0.00 0.00 0.00 91 1015.2
20260901105518 20 197 0.0 0.0 0.00 0.00 0.00 91 1015.3
20260901105011 20 197 0.0 0.0 0.00 0.00 0.00 91 1015.3
20260901104611 20 197 0.0 0.0 0.00 0.00 0.00 91 1015.2
20260901104012 20 197 0.0 0.0 0.00 0.00 0.00 91 1015.2
20260901103510 20 197 0.0 0.0 0.00 0.00 0.00 91 1015.1
20260901103011 20 197 0.0 0.0 0.00 0.00 0.00 91 1015.1
20260901102511 20 197 0.0 0.0 0.00 0.00 0.00 91 1015.1
20260901102011 20 197 0.0 0.0 0.00 0.00 0.00 91 1015.1
20260901101513 20 197 0.0 0.0 0.00 0.00 0.00 91 1015.1
20260901101010 20 197 0.0 0.0 0.00 0.00 0.00 90 1015.1
20260901100510 20 197 0.0 0.0 0.00 0.00 0.00 90 1015.0
20260901100010 20 197 0.0 0.0 0.00 0.00 0.00 90 1015.1
20260901095509 20 197 0.0 0.0 0.00 0.00 0.00 90 1015.0
20260901095009 20 197 0.0 0.0 0.00 0.00 0.00 90 1015.0
20260901094509 20 197 0.0 0.0 0.00 0.00 0.00 90 1015.0
20260901094008 20 197 0.0 0.0 0.00 0.00 0.00 90 1015.0
20260901093510 20 197 0.0 0.0 0.00 0.00 0.00 90 1015.0
20260901093009 20 197 0.0 0.0 0.00 0.00 0.00 90 1015.1
20260901092508 20 197 0.0 0.0 0.00 0.00 0.00 89 1015.1
20260901092008 20 197 0.0 0.0 0.00 0.00 0.00 89 1015.0
20260901091507 20 197 0.0 0.0 0.00 0.00 0.00 89 1015.0
20260901091007 20 197 0.0 0.0 0.00 0.00 0.00 89 1015.0
20260901090506 20 197 0.0 0.0 0.00 0.00 0.00 89 1014.9
20260901090009 20 197 0.0 0.0 0.00 0.00 0.00 89 1014.9
20260901085505 20 197 0.0 0.0 0.00 0.00 0.00 89 1014.9
20260901085006 20 197 0.0 0.0 0.00 0.00 0.00 89 1015.0
20260901084504 20 197 0.0 0.0 0.00 0.00 0.00 89 1015.2
20260901084004 20 197 0.0 0.0 0.00 0.00 0.00 89 1015.3
20260901083502 20 197 0.0 0.0 0.00 0.00 0.00 89 1015.4
20260901083002 20 197 0.0 0.0 0.00 0.00 0.00 89 1015.6
20260901082501 20 197 0.0 0.0 0.00 0.00 0.00 88 1015.8
20260901082100 20 197 0.0 0.0 0.00 0.00 0.00 88 1015.9
20260901081559 20 197 0.0 0.0 0.00 0.00 0.00 88 1015.9
20260901081059 20 197 0.0 0.0 0.00 0.00 0.00 88 1015.9
20260901080558 20 197 0.0 0.0 0.00 0.00 0.00 88 1015.9
20260901080111 20 197 0.0 0.0 0.00 0.00 0.00 88 1015.9
20260901075558 20 197 0.0 0.0 0.00 0.00 0.00 88 1015.8
20260901075059 20 197 0.0 0.0 0.00 0.00 0.00 88 1015.8
20260901074616 20 197 0.0 0.0 0.00 0.00 0.00 88 1015.8
20260901074056 20 197 0.0 0.0 0.00 0.00 0.00 88 1015.9
20260901073556 20 197 0.0 0.0 0.00 0.00 0.00 87 1015.9
20260901073054 20 197 0.0 0.0 0.00 0.00 0.00 88 1015.9
20260901072556 20 197 0.0 0.0 0.00 0.00 0.00 88 1015.8
20260901072054 20 197 0.0 0.0 0.00 0.00 0.00 87 1015.6
20260901071553 20 197 0.0 0.0 0.00 0.00 0.00 87 1015.6
20260901071051 20 197 0.0 0.0 0.00 0.00 0.00 87 1015.6
20260901070551 20 197 0.0 0.0 0.00 0.00 0.00 87 1015.7
20260901070049 20 197 0.0 0.0 0.00 0.00 0.00 87 1015.7
20260901065549 20 197 0.0 0.0 0.00 0.00 0.00 87 1015.6
20260901065048 20 197 0.0 0.0 0.00 0.00 0.00 87 1015.6
20260901064547 20 197 0.0 0.0 0.00 0.00 0.00 86 1015.9
20260901064045 20 197 0.0 0.0 0.00 0.00 0.00 86 1016.0
20260901063543 20 197 0.0 0.0 0.00 0.00 0.00 86 1016.1
20260901063049 20 197 0.0 0.0 0.00 0.00 0.00 86 1016.1
20260901062542 20 197 0.0 0.0 0.00 0.00 0.00 86 1016.2
20260901062041 20 197 0.0 0.0 0.00 0.00 0.00 86 1016.3
20260901061539 20 197 0.0 0.0 0.00 0.00 0.00 86 1016.2
20260901061037 20 197 0.0 0.0 0.00 0.00 0.00 86 1016.2
20260901060537 20 197 0.0 0.0 0.00 0.00 0.00 86 1016.1
20260901060041 20 197 0.0 0.0 0.00 0.00 0.00 86 1016.0
20260901055534 20 197 0.0 0.0 0.00 0.00 0.00 86 1016.0
20260901055033 20 197 0.0 0.0 0.00 0.00 0.00 86 1016.1
20260901054531 20 196 0.0 0.0 0.00 0.00 0.00 86 1016.0
20260901054029 20 197 0.0 0.0 0.00 0.00 0.00 86 1016.0
20260901053528 20 197 0.0 0.0 0.00 0.00 0.00 86 1016.1
20260901053029 20 197 0.0 0.0 0.00 0.00 0.00 86 1016.1
20260901052525 20 197 0.0 0.0 0.00 0.00 0.00 86 1016.0
20260901052023 20 197 0.0 0.0 0.00 0.00 0.00 86 1016.0
20260901051522 20 197 0.0 0.0 0.00 0.00 0.00 86 1016.0
20260901051020 20 197 0.0 0.0 0.00 0.00 0.00 86 1016.1
20260901050520 20 197 0.0 0.0 0.00 0.00 0.00 86 1016.3
20260901050019 20 197 0.0 0.0 0.00 0.00 0.00 86 1016.3
20260901045519 20 197 0.0 0.0 0.00 0.00 0.00 86 1016.3
20260901045018 20 197 0.0 0.0 0.00 0.00 0.00 86 1016.3
20260901044518 20 197 0.0 0.0 0.00 0.00 0.00 86 1016.3
20260901044018 20 197 0.0 0.0 0.00 0.00 0.00 86 1016.3
20260901043518 20 197 0.0 0.0 0.00 0.00 0.00 86 1016.3
20260901043017 20 197 0.0 0.0 0.00 0.00 0.00 86 1016.4
20260901042516 20 197 0.0 0.0 0.00 0.00 0.00 86 1016.4
20260901042016 20 197 0.0 0.0 0.00 0.00 0.00 86 1016.4
20260901041515 20 197 0.0 0.0 0.00 0.00 0.00 86 1016.4
20260901041014 20 197 0.0 0.0 0.00 0.00 0.00 86 1016.5
20260901040514 20 197 0.0 0.0 0.00 0.00 0.00 86 1016.5
20260901040013 20 197 0.0 0.0 0.00 1.42 0.00 85 1016.6
20260901035512 20 197 0.0 0.0 0.00 1.42 0.00 86 1016.7
20260901035012 20 195 0.0 0.0 0.00 1.42 0.00 86 1016.7
20260901034510 20 195 0.0 0.0 0.00 1.42 0.00 86 1016.8
20260901034009 20 195 0.0 0.0 0.00 1.42 0.00 85 1016.7
20260901033512 20 195 0.0 0.0 0.00 1.42 0.00 86 1016.7
20260901033008 20 195 0.0 0.0 0.00 1.42 0.00 85 1016.7
20260901032509 20 195 0.0 0.0 0.00 1.42 0.00 85 1016.7
20260901032009 20 195 0.0 0.0 0.00 1.42 0.00 85 1016.6
20260901031509 20 195 0.0 0.0 0.00 1.42 0.00 84 1016.6
20260901031010 20 195 0.0 0.0 0.00 1.42 0.00 84 1016.6
20260901030508 20 195 0.0 0.0 0.00 1.42 0.00 84 1016.5
20260901030007 20 195 0.0 0.0 0.00 1.65 0.00 84 1016.5
20260901025508 20 195 0.0 0.0 0.00 1.65 0.00 84 1016.5
20260901025007 20 195 0.0 0.0 0.00 1.65 0.00 84 1016.6
20260901024508 20 195 0.0 0.0 0.00 1.65 0.00 84 1016.5
20260901024008 20 195 0.0 0.0 0.00 1.65 0.00 84 1016.5
20260901023511 20 195 0.0 0.0 0.00 1.65 0.00 84 1016.6
20260901023007 20 195 0.0 0.0 0.00 1.65 0.00 84 1016.6
20260901022507 20 195 0.0 0.0 0.00 1.65 0.00 84 1016.6
20260901022007 20 195 0.0 0.0 0.00 1.65 0.00 84 1016.7
20260901021510 20 195 0.0 0.0 0.00 1.65 0.00 84 1016.7
20260901021007 20 195 0.0 0.0 0.00 1.65 0.00 84 1016.8
20260901020507 20 195 0.0 0.0 0.00 1.65 0.00 84 1016.8
20260901020007 20 195 0.0 0.0 0.00 1.65 0.00 84 1016.8
20260901015507 20 195 0.0 0.0 0.00 1.65 0.00 85 1016.9
20260901015008 20 195 0.0 0.0 0.00 1.65 0.00 85 1017.0
20260901014506 20 195 0.0 0.0 0.00 1.65 0.00 85 1017.0
20260901014006 20 195 0.0 0.0 0.00 1.65 0.00 85 1017.0
20260901013506 20 195 0.0 0.0 0.00 1.65 0.00 85 1016.9
20260901013008 20 193 0.0 0.0 0.00 1.65 0.00 85 1017.0
20260901012508 20 192 0.0 0.0 0.00 1.65 0.00 84 1017.0
20260901012011 21 191 0.0 0.0 0.00 1.65 0.00 85 1016.9
20260901011505 21 191 0.0 0.0 0.00 1.65 0.00 85 1017.0
20260901011004 21 191 0.0 0.0 0.00 1.65 0.00 85 1017.0
20260901010504 21 191 0.0 0.0 0.00 1.65 0.00 84 1017.1
20260901010005 21 190 0.0 0.0 0.00 1.65 0.00 84 1017.0
20260901005507 21 190 0.0 3.2 0.00 1.65 0.00 84 1017.0
20260901005004 21 190 0.0 6.4 0.00 1.65 0.00 84 1017.0
20260901004503 21 187 0.0 6.4 0.00 1.65 0.00 84 1017.0
20260901004004 21 189 0.0 1.6 0.00 1.65 0.00 84 1016.9
20260901003503 21 196 0.0 1.6 0.00 1.65 0.00 84 1016.8
20260901003010 21 202 0.0 0.0 0.00 1.65 0.00 84 1016.8
20260901002503 21 202 0.0 3.2 0.00 1.65 0.00 84 1016.8
20260901002005 21 203 0.0 3.2 0.00 1.65 0.00 84 1016.9
20260901001502 21 197 0.0 0.0 0.00 1.65 0.00 84 1016.9
20260901001001 21 195 0.0 0.0 0.00 1.65 0.00 84 1016.9
20260901000501 21 201 0.0 1.6 0.00 1.65 0.00 83 1016.8
20260901000002 21 202 0.0 3.2 0.00 1.65 0.00 83 1016.9
20260831235502 21 195 0.0 3.2 0.00 1.65 0.00 83 1017.0
20260831235002 21 200 0.0 3.2 0.00 1.65 0.00 82 1016.9
20260831234502 21 204 0.0 4.8 0.00 1.65 0.00 82 1016.9
20260831234000 21 197 0.0 4.8 0.00 1.65 0.00 82 1016.9
20260831233502 21 202 0.0 1.6 0.00 1.65 0.00 82 1016.9
20260831233002 21 210 0.0 1.6 0.00 1.65 0.00 82 1016.9
20260831232501 21 160 0.0 1.6 0.00 1.65 0.00 82 1016.8
20260831232101 21 195 0.0 1.6 0.00 1.65 0.00 82 1016.8
20260831231600 21 195 0.0 3.2 0.00 1.65 0.00 81 1016.9
20260831231100 21 200 0.0 3.2 0.00 1.65 0.00 81 1016.9
20260831230602 21 190 0.0 3.2 0.00 1.65 0.00 81 1016.9
20260831230113 21 179 0.0 6.4 0.00 1.65 0.00 81 1016.9
20260831225601 21 207 0.0 6.4 0.00 1.65 0.00 81 1016.9
20260831225100 21 193 0.0 4.8 0.00 1.65 0.00 80 1016.9
20260831224559 21 197 0.0 1.6 0.00 1.65 0.00 80 1016.9
20260831224058 21 195 0.0 3.2 0.00 1.65 0.00 80 1017.0
20260831223558 22 38 0.0 3.2 0.00 1.65 0.00 79 1016.8
20260831223108 22 190 0.0 3.2 0.00 1.65 0.00 79 1016.9
20260831222557 22 211 0.0 3.2 0.00 1.65 0.00 80 1016.9
20260831222057 22 192 0.0 4.8 0.00 1.65 0.00 80 1016.8
20260831221559 22 197 0.0 4.8 0.00 1.65 0.00 79 1016.9
20260831221057 22 196 0.0 3.2 0.00 1.65 0.00 79 1016.9
20260831220556 22 171 0.0 1.6 0.00 1.65 0.00 79 1016.9
20260831220057 22 188 0.0 1.6 0.00 1.65 0.00 79 1017.0
20260831215556 22 171 0.0 1.6 0.00 1.65 0.00 79 1016.9
20260831215056 22 193 0.0 4.8 0.00 1.65 0.00 78 1017.0
20260831214608 22 199 0.0 4.8 0.00 1.65 0.00 77 1017.0
20260831214055 22 204 0.0 6.4 0.00 1.65 0.00 77 1017.0
20260831213555 22 205 0.0 6.4 0.00 1.65 0.00 76 1017.0
20260831213055 22 197 0.0 4.8 0.00 1.65 0.00 75 1017.1
20260831212555 22 199 0.0 3.2 0.00 1.65 0.00 75 1017.1
20260831212057 22 187 0.0 0.0 0.00 1.65 0.00 75 1017.1
20260831211554 23 206 0.0 0.0 0.00 1.65 0.00 75 1017.0
20260831211056 23 202 0.0 4.8 0.00 1.65 0.00 76 1017.2
20260831210557 23 198 0.0 4.8 0.00 1.65 0.00 74 1017.3
20260831210053 23 217 0.0 3.2 0.00 1.65 0.00 74 1017.1
20260831205555 23 212 0.0 4.8 0.00 1.65 0.00 74 1016.9
20260831205053 23 193 0.0 4.8 0.00 1.65 0.00 75 1017.0
20260831204553 23 197 0.0 3.2 0.00 1.65 0.00 75 1017.0
20260831204053 23 190 0.0 1.6 0.00 1.65 0.00 75 1016.9
20260831203552 23 204 0.0 4.8 0.00 1.65 0.00 74 1017.0
20260831203055 23 199 0.0 4.8 0.00 1.65 0.00 73 1016.9
20260831202552 23 207 0.0 4.8 0.00 1.65 0.00 72 1016.7
20260831202054 23 178 1.6 4.8 0.00 1.65 0.00 70 1016.7
20260831201551 24 344 0.0 4.8 0.00 1.65 0.00 69 1016.7
20260831201050 25 183 0.0 4.8 0.00 1.65 0.00 68 1016.9
20260831200550 25 195 0.0 6.4 0.00 1.65 0.00 69 1017.0
20260831195549 24 192 0.0 4.8 0.00 1.65 0.00 71 1017.0
20260831195049 24 205 0.0 6.4 0.00 1.65 0.00 71 1017.0
20260831194619 25 200 0.0 6.4 0.00 1.65 0.00 72 1017.0
20260831194049 25 177 1.6 4.8 0.00 1.65 0.00 71 1017.1
20260831193549 25 190 0.0 8.0 0.00 1.65 0.00 71 1017.0
20260831193053 25 188 0.0 8.0 0.00 1.65 0.00 66 1017.1
20260831192548 25 207 0.0 0.0 0.00 1.65 0.00 62 1017.1
20260831192048 25 185 0.0 0.0 0.00 1.65 0.00 62 1017.2
20260831191549 25 203 0.0 3.2 0.00 1.65 0.00 63 1017.2
20260831191052 25 203 0.0 3.2 0.00 1.65 0.00 63 1017.2
20260831190548 25 198 0.0 3.2 0.00 1.65 0.00 63 1017.2
20260831190055 25 202 0.0 0.0 0.00 1.65 0.00 64 1017.2
20260831185547 25 193 0.0 1.6 0.00 1.65 0.00 62 1017.2
20260831185047 25 209 0.0 3.2 0.00 1.65 0.00 63 1017.3
20260831184546 25 207 0.0 4.8 0.00 1.65 0.00 62 1017.4
20260831184048 25 189 1.6 4.8 0.00 1.65 0.00 61 1017.5
20260831183546 26 196 0.0 6.4 0.00 1.65 0.00 62 1017.4
20260831183054 26 209 0.0 11.3 0.00 1.65 0.00 62 1017.5
20260831182548 26 178 1.6 11.3 0.00 1.65 0.00 61 1017.5
20260831182049 26 187 3.2 9.7 0.00 1.65 0.00 61 1017.6
20260831181548 26 211 0.0 0.0 0.00 1.65 0.00 61 1017.6
20260831181044 27 215 0.0 4.8 0.00 1.65 0.00 59 1017.6
20260831180545 27 214 0.0 6.4 0.00 1.65 0.00 59 1017.5
20260831180055 27 179 0.0 6.4 0.00 1.65 0.00 58 1017.5
20260831175543 27 196 0.0 0.0 0.00 1.65 0.00 60 1017.6
20260831175044 27 185 0.0 0.0 0.00 1.65 0.00 58 1017.7
20260831174541 27 351 0.0 4.8 0.00 1.65 0.00 64 1017.8
20260831174041 27 354 0.0 4.8 0.00 1.65 0.00 59 1017.8